Location: Beutels
(47.8767°N, 9.8584°E)
Time: 13:27:46
(UTC+00:00)

ISS - Pass Details

Date: 23 January 2026
Orbit: 413 x 429 km, 51.6° (Epoch: 11 February)

Event Time Altitude Azimuth Distance (km) Brightness Sun altitude
Rises 19:16:44 0° 292° (WNW) 2,372 1.1 -31.6°
Reaches altitude 10° 19:18:52 10° 287° (WNW) 1,508 -0.1 -31.9°
Enters shadow 19:19:02 11° 287° (WNW) 1,441 -0.2 -31.9°
